星链-36513(STARLINK-36513)

导读

STARLINK-36513是美国SpaceX星链星座的卫星,于2026年1月12日由猎鹰9号火箭在佛罗里达卡纳维拉尔角发射,属于星链6-97任务批次,最终被部署进入低地球轨道。 作为星链星座扩容的一部分,该卫星延续了星链先进的技术设计,将参与构建全球高速低延迟卫星互联网,为地面偏远地区、海上以及航空场景提供宽带接入服务,目前星链已成为全球规模最大的低轨通信卫星星座。

基本信息
目录编号:
67429
目录名称:
STARLINK-36513
国际标识:
2026-005AB
轨道中心:
EARTH
卫星名称:
星链-36513
卫星全名:
星链-36513(STARLINK-36513)
卫星状态:
在轨 (已飞行242 天)
发射日期:
2026-01-12 UTC
国别 :
美国 (US)
星等 :
--
该卫星已列入 空间交会检测服务 Space Conjunction Data Service (SCDS) ,当前飞行风险评估等级: 高风险
轨道信息
数据来源 国际轨道数据 AOE轨道数据
星历时间 2026-09-10T02:56:00+0800
1天前
查看轨道信息
2026-09-06T01:00:00+0800
5天前
查看轨道信息
半长轴 6861.182km 6861.193km
偏心率 0.0001465 0.0000016
轨道倾角 43.003° 43.003°
近地点辐角 273.983° 181.051°
升交点赤经 278.147° 301.197°
平近点角 86.086° 32.600°
近地点 482.039km 483.045km
远地点 484.051km 483.067km
周期 94.267分钟 94.267分钟
每日圈数 15.275816 15.27578
详细信息
固有亮度:
5
最大亮度:
2.5
卫星平台:
Starlink V1.0
覆盖范围:
全球
运营商:
太空探索技术公司
运营商所在国:
美国
制造商(研发单位):
太空探索技术公司
制造商所在国:
美国
使用方式:
暂无
卫星简介
Starlink 计划是 SpaceX 推出的全球卫星互联网项目,通过发射低轨道卫星,为全球尤其是偏远地区提供高速、低延迟的互联网服务。自 2019 年起,Starlink 已部署数千颗卫星,旨在缩小全球数字鸿沟,推动互联网普及。该项目还为军事、航空等行业提供通信支持,带来广泛经济效益。
2D轨道图
3D轨道图
轨道高度分析图
轨道倾角分析图
轨道综合分析图
查看轨道综合分析图
交会数据列表
事件ID 空间交会对象 最接近时刻(TCA) 交会距离 交会风险概率(CRP) 交会风险指数(CRI) 操作
CDM_260912-163205-992706-742921
2026-09-12T
16:32:18+0000
0.341 km
远距离
3.076565E-4 高风险 0.85
CDM_260911-040606-300106-742921
2026-09-11T
04:06:48+0000
0.437 km
远距离
1.886795E-4 高风险 0.81
CDM_260912-193805-909206-742921
2026-09-12T
19:38:03+0000
0.669 km
远距离
5.476904E-5 中风险 0.7
CDM_260912-152905-775006-742921
2026-09-12T
15:29:26+0000
0.771 km
远距离
3.064825E-5 中风险 0.65
CDM_260913-000705-775006-742921
2026-09-13T
00:07:17+0000
0.814 km
远距离
2.567391E-5 中风险 0.63
CDM_260911-190106-300106-742921
2026-09-11T
19:01:15+0000
1.017 km
极远距离
1.599576E-5 中风险 0.59
CDM_260911-203506-300106-742921
2026-09-11T
20:35:24+0000
1.031 km
极远距离
1.529763E-5 中风险 0.59
CDM_260912-135505-775006-742921
2026-09-12T
13:55:17+0000
1.193 km
极远距离
6.943603E-6 低风险 0.52
CDM_260911-023206-300106-742921
2026-09-11T
02:32:39+0000
1.362 km
极远距离
5.867668E-6 低风险 0.5
CDM_260912-145805-992706-742921
2026-09-12T
14:58:08+0000
1.456 km
极远距离
4.722221E-6 低风险 0.48
与全量物体交会距离演化趋势
与全量物体交会风险概率演化趋势